Regional Weather Roundup
Issued by NWS

Home | Current Version | Previous Version | Graphics & Text | Print | Product List | Glossary On
Versions: 1 2 3 4 5 6 7 8 9 10 11 12 13 14 15 16 17 18 19 20 21 22 23 24 25 26 27 28 29 30 31 32 33 34 35 36 37 38 39 40 41 42 43 44 45 46 47 48 49 50
000
ASUS43 KDMX 291107
RWRIA

WEATHER ROUNDUP FOR IOWA
NATIONAL WEATHER SERVICE DES MOINES IA
600 AM CDT MON JUN 29 2015

NOTE: "FAIR" INDICATES FEW OR NO CLOUDS BELOW 12,000 FEET WITH NO
SIGNIFICANT WEATHER AND/OR OBSTRUCTIONS TO VISIBILITY.

* - THESE STATIONS ARE NOT NWS STATIONS...THUS NOT UNDER NWS
QUALITY CONTROL.  THEY ALSO DO NOT REPORT WEATHER SUCH
AS PRECIPITATION OR FOG.

IAZ001>003-012>014-020>022-031>034-043>046-291200-
   NORTHWEST IOWA

CITY           SKY/WX    TMP DP  RH WIND       PRES   REMARKS
CARROLL *      CLEAR     63  61  94 W10       29.88S
CHEROKEE *     CLEAR     59  59 100 CALM      29.90R FOG
DENISON *      CLEAR     61  59  94 CALM      29.89R
LE MARS *      CLEAR     59  59 100 CALM      29.92R
ORANGE CITY *  CLEAR     61  57  88 NW3       29.92R
SHELDON *      CLEAR     59  59 100 NW3       29.90R FOG
SIOUX CITY     CLEAR     63  58  83 NW7       29.92R
SPENCER        CLEAR     60  57  89 W6        29.90R FOG
STORM LAKE *   CLEAR     63  59  88 NW8       29.91R
$$

IAZ055>058-069>071-079>083-090>094-291200-
   SOUTHWEST IOWA

CITY           SKY/WX    TMP DP  RH WIND       PRES   REMARKS
ATLANTIC *     PTCLDY    63  59  88 CALM      29.91R
AUDUBON *      CLEAR     63  57  82 CALM      29.91R
CLARINDA *     CLEAR     61  61 100 CALM      29.92S
COUNCIL BLFS * CLEAR     63  59  88 SW3       29.92S
CRESTON *      CLEAR     61  59  94 W7        29.90R
HARLAN  *      CLEAR     61  61 100 CALM      29.94S
LAMONI         CLEAR     64  62  93 NW7       29.87S
RED OAK *      MOCLDY    64  61  88 CALM      29.91R
SHENANDOAH *     N/A     63  61  94 SW3       29.92R FOG
$$

IAZ047>049-059>061-072>074-084-291200-
   CENTRAL IOWA

CITY           SKY/WX    TMP DP  RH WIND       PRES   REMARKS
AMES           CLEAR     62  60  93 NW5       29.85R
ANKENY *       CLEAR     64  64 100 W7        29.85R
CHARITON *     CLEAR     64  63  94 W7        29.86R
DES MOINES     PTCLDY    65  62  90 W6        29.85R
GRINNELL*      FOG       61  61 100 CALM      29.85R VSB 1/4
KNOXVILLE *    CLEAR     64  63  94 NW7       29.84R
MARSHALLTOWN   CLEAR     60  59  96 W6        29.84R FOG
PELLA *          N/A     64  64 100 NW5       29.86R FOG
PERRY *          N/A     63  61  94 W6        29.87R
$$

IAZ004>006-015-016-023>025-035-036-291200-
   NORTH CENTRAL IOWA

CITY           SKY/WX    TMP DP  RH WIND       PRES   REMARKS
ALGONA *       CLEAR     64  61  88 NW8       29.87R
CLARION *      CLEAR     61  59  94 NW5       29.85R
ESTHERVILLE    CLEAR     61  59  93 NW8       29.87S
FORT DODGE *   CLEAR     63  57  82 CALM      29.88R
MASON CITY     CLEAR     61  59  93 NW8       29.85S
FOREST CITY *  CLEAR     61  61 100 NW3       29.85R
IOWA FALLS *     N/A     61  59  94 W3        29.86R
$$

IAZ007>011-017>019-026>030-037>042-050>054-066-291200-
   NORTHEAST IOWA

CITY           SKY/WX    TMP DP  RH WIND       PRES   REMARKS
CEDAR RAPIDS   FOG       58  58 100 CALM      29.82R VSB 3/4
CHARLES CITY * FOG       59  59 100 CALM      29.84R VSB 0
CLINTON *      CLOUDY    61  57  88 NW5       29.83S VSB<1/4
DECORAH *        N/A    N/A N/A N/A MISG        N/A
DUBUQUE          N/A     58  56  93 CALM      29.82R FOG
MONTICELLO *   FOG       59  59 100 CALM      29.82S VSB 1/4
OELWEIN *        N/A     61  61 100 N3        29.83S
WATERLOO       FOG       61  61 100 CALM      29.82S VSB<1/4
$$

IAZ064-065-067-068-078-291200-
   EAST CENTRAL IOWA

CITY           SKY/WX    TMP DP  RH WIND       PRES   REMARKS
DAVENPORT      FOG       58  57  97 CALM      29.82R VSB<1/4
IOWA CITY      FOG       61  61 100 CALM      29.83R VSB 1/4
MT. PLEASANT * CLOUDY    66  64  94 NW10      29.82R FOG
MUSCATINE *    FOG       63  63 100 NW6       29.82R VSB 0
QUAD CITIES    FOG       63  61  93 CALM      29.81R VSB 1/4
$$

IAZ062-063-075>077-085>089-095>099-291200-
   SOUTHEAST IOWA

CITY           SKY/WX    TMP DP  RH WIND       PRES   REMARKS
BURLINGTON     CLOUDY    64  64 100 N6        29.81R FOG
FAIRFIELD *    FOG       64  64 100 NW6       29.83R VSB 1/2
FORT MADISON * CLOUDY    64  64 100 NW7       29.82S FOG
KEOKUK *       FOG       64  64 100 NW7       29.81R VSB 1/2
OSKALOOSA *    CLOUDY    64  64 100 NW6       29.85R FOG
OTTUMWA        FOG       65  65 100 NW9       29.82R VSB 1/2
WASHINGTON *   FOG       63  63 100 NW7       29.84R VSB 0
$$

ABBREVIATIONS USED IN REMARKS
   TC - TEMPERATURES IN CELSIUS
  WCI - WIND CHILL INDEX
   HX - HEAT INDEX
  VSB - VISIBILITY
$$



USA.gov is the U.S. government's official web portal to all federal, state and local government web resources and services.